[Iaude] MPEC J255: 2023 FR14 [a=1.11,e=0.44,i=31.4,H=20.79]
    mpec at cfa.harvard.edu 
    mpec at cfa.harvard.edu
       
    Fri May 10 10:17:00 EDT 2024
    
    
  
M.P.E.C. 2024-J255                                 Issued 2024 May 10, 14:15 UT
     The Minor Planet Electronic Circulars contain information on unusual
         minor planets, routine data on comets and natural satellites,
         and occasional editorial announcements.  They are published
    on behalf of Division F of the International Astronomical Union by the
          Minor Planet Center, Smithsonian Astrophysical Observatory,
                          Cambridge, MA 02138, U.S.A.
			  
             Prepared using the Tamkin Foundation Computer Network
                              MPC at CFA.HARVARD.EDU
            URL https://www.minorplanetcenter.net/    ISSN 1523-6714
                                   2023 FR14                                    
                           Revision to MPEC 2023-G46                            
Additional Observations:
     K23F14R  C2014 08 13.58064801 38 47.074+33 50 18.44         20.61GVEJ255F51
     K23F14R  C2014 08 13.59410901 38 54.337+33 50 01.32         20.50GVEJ255F51
     K23F14R  C2014 08 13.60428301 38 59.874+33 49 48.12         20.27GVEJ255F51
     K23F14R  C2014 08 13.61441301 39 05.372+33 49 34.94         20.20GVEJ255F51
     K23F14R  C2016 04 29.59181017 16 16.459+49 08 32.63         21.52GVEJ255F51
     K23F14R  C2016 04 29.60726517 16 14.076+49 08 48.35         21.50GVEJ255F51
     K23F14R  C2016 04 29.61502717 16 12.905+49 08 56.40         21.96GVEJ255F51
     K23F14R  C2016 05 01.62081717 11 13.222+49 42 07.29         21.33GVEJ255F51
     K23F14R  C2016 05 23.43177116 10 52.082+51 07 00.97         22.47GVEJ255F51
     K23F14R  C2016 05 23.45859716 10 47.667+51 06 49.35         22.32GVEJ255F51
     K23F14R  C2022 07 19.33888916 55 32.400+33 15 59.94         22.78GVEJ255F52
     K23F14R  C2022 07 19.35049316 55 31.476+33 15 40.45         22.11GVEJ255F52
     K23F14R  C2022 07 19.36206516 55 30.585+33 15 21.18         22.30GVEJ255F52
     K23F14R 0C2024 05 09.24331206 49 02.897+27 50 34.30         22.41GVEJ255T14
     K23F14R 0C2024 05 09.24452406 49 03.366+27 50 36.48         22.66GVEJ255T14
     K23F14R 0C2024 05 09.24573406 49 03.835+27 50 38.66         22.45GVEJ255T14
     K23F14R 0C2024 05 10.24284606 55 32.137+28 20 10.61         22.90GVEJ255T14
     K23F14R 0C2024 05 10.24405606 55 32.600+28 20 12.63         22.81GVEJ255T14
     K23F14R 0C2024 05 10.24526806 55 33.065+28 20 14.64         23.04GVEJ255T14
Observer details:
F51 Pan-STARRS 1, Haleakala.  Observers J. Herman, T. Lowe, P. Minguez, A.
    Schultz, I. Smith.  Measurers K. Chambers, T. de Boer, J. Fairlamb, H.
    Gao, M. Huber, C.-C. Lin, E. Magnier, Y. Ramanjooloo, R. Wainscoat, R.
    Weryk.  1.8-m Ritchey-Chretien + CCD.
F52 Pan-STARRS 2, Haleakala.  Observers J. Herman, T. Lowe, P. Minguez, A.
    Schultz, I. Smith.  Measurers K. Chambers, T. de Boer, J. Fairlamb, H.
    Gao, M. Huber, C.-C. Lin, E. Magnier, Y. Ramanjooloo, R. Wainscoat, R.
    Weryk.  1.8-m Ritchey-Chretien + CCD.
T14 Canada-France-Hawaii Telescope, Maunakea.  Observers H. Januszewski, L.
    Wells.  Measurer D. J. Tholen.  3.6-m f/4.1 reflector + 1024 x 2306 pixels
    Megacam.
First and last observations above in comparison with prediction:
Residuals in seconds of arc (or two decimals in degrees), reference and Delta-T
140813 F51 0.08+ 0.03+    240510 T14 0.00+ 0.00+    MPO744857   -0.00 days
Orbital elements:
2023 FR14                                           PHA, Earth MOID = 0.0052 AU
Epoch 2024 Mar. 31.0 TT = JDT 2460400.5                 Veres                   
M   4.63404              (2000.0)            P               Q                  
n   0.83795485     Peri.  285.35419     +0.03078664     -0.98365133             
a   1.1142662      Node   160.11723     +0.99253364     +0.05104649             
e   0.4420127      Incl.   31.44712     -0.11802183     +0.17269719             
P   1.18           H   20.79          G   0.15           U   0                  
Residuals in seconds of arc
140813 F51  0.1-  0.1-    230330 703  0.0   0.8+    230429 695  0.0   0.2+
140813 F51  0.3-  0.1-    230402 I52  0.0   0.1-    230429 695  0.3+  0.1-
140813 F51  0.1+  0.1-    230402 I52  0.5+  0.8+    230429 695  0.3+  0.1-
140813 F51  0.2+  0.2-    230403 703  0.3+  1.3-    230512 V06  0.2-  0.4-
160429 F51  0.0   0.2+    230403 703  0.6+  0.4-    230512 V06  0.0   0.9-
160429 F51  0.1-  0.1-    230403 703  0.1-  1.2-    230524 V06  0.1-  0.1+
160429 F51  0.0   0.1-    230403 703  0.7-  0.3-    230524 V06  0.0   0.1+
160501 F51  0.3+  0.0     230410 I52  0.1-  0.1+    230524 V06  0.1-  0.0
160523 F51  0.0   0.0     230410 I52  0.0   0.3+    230524 V06  0.3-  0.0
160523 F51  0.1+  0.1+    230410 I52  0.2-  0.1+    230612 695  0.3-  0.3+
220719 F52  0.0   0.2+    230410 I52  0.0   0.3+    230612 695  0.0   0.2+
220719 F52  0.2-  0.0     230415 T12  0.0   0.0     230612 695  0.1+  0.3+
220719 F52  0.1-  0.0     230415 T12  0.1-  0.2+    240509 T14  0.1+  0.0
230330 703  1.1+  0.4-    230415 T12  0.0   0.1+    240509 T14  0.1+  0.0
230330 703  0.4-  0.8-    230415 T12  0.1-  0.1+    240509 T14  0.1+  0.0
230330 703  1.0-  1.6-    230415 T12  0.0   0.1+    240510 T14  0.0   0.1+
230330 703  0.5+  1.4+    230415 T12  0.1-  0.1+    240510 T14  0.1-  0.0
230330 703  0.7-  0.3+    230418 J04  0.1-  0.1+    240510 T14  0.1-  0.1-
Ephemeris:
2023 FR14                a,e,i = 1.11, 0.44, 31                  q = 0.6217
Date    TT    R. A. (2000) Decl.     Delta      r    Elong.  Phase     V
2024 04 10    03 46 05.2 +07 45 55   1.0513  0.6604    37.4    67.2    22.4
...
2024 04 25    05 17 21.3 +18 51 26   0.9530  0.7528    45.1    71.2    22.6
...
2024 05 03    06 08 31.2 +24 18 21   0.9387  0.8133    49.2    69.8    22.7
...
2024 05 09    06 47 28.3 +27 43 10   0.9445  0.8608    52.1    67.8    22.7
2024 05 10    06 53 57.9 +28 13 05   0.9466  0.8688    52.6    67.4    22.7
2024 05 11    07 00 26.8 +28 41 44   0.9492  0.8768    53.1    67.0    22.8
...
2024 05 17    07 38 57.5 +31 05 51   0.9707  0.9249    55.6    64.4    22.8
...
2024 05 25    08 28 18.3 +33 04 34   1.0139  0.9885    58.4    60.8    23.0
...
2024 06 09    09 50 39.5 +33 36 38   1.1253  1.1023    61.7    54.2    23.2
A. U. Tomatic                (C) Copyright 2024 MPC           M.P.E.C. 2024-J255
    
    
More information about the Iaude
mailing list